Regional Weather Roundup
Issued by NWS

Home | Current Version | Previous Version | Text Only | Print | Product List | Glossary Off
Versions: 1 2 3 4 5 6 7 8 9 10 11 12 13 14 15 16 17 18 19 20 21 22 23 24 25 26 27 28 29 30 31 32 33 34 35 36 37 38 39 40 41 42 43 44 45 46 47 48 49 50

000
ASUS43 KLMK 290602
RWRKY
KENTUCKY REGIONAL WEATHER ROUNDUP
NATIONAL WEATHER SERVICE LOUISVILLE KY
200 AM EDT WED MAR 29 2017

NOTE "FAIR" INDICATES FEW OR NO CLOUDS BELOW 12,000 FEET
WITH NO SIGNIFICANT WEATHER AND/OR OBSTRUCTIONS TO VISIBILITY.

KYZ001>023-026-027-061>063-070>075-290700-
WESTERN AND SOUTH CENTRAL KENTUCKY

CITY           SKY/WX    TMP DP  RH WIND       PRES   REMARKS
PADUCAH        CLEAR     51  48  89 E5        30.04F
HENDERSON      CLOUDY    55  48  76 NE7       30.07S
OWENSBORO        N/A    N/A N/A N/A MISG        N/A
HOPKINSVILLE   CLEAR     52  52 100 CALM      30.05S FOG
BOWLING GREEN  MOCLDY    57  54  89 E7        30.07R
GLASGOW        NOT AVBL
$$

KYZ024-025-028>034-038-045-046-053-290700-
NORTH CENTRAL KENTUCKY

CITY           SKY/WX    TMP DP  RH WIND       PRES   REMARKS
LOUISVILLE/SDF MOCLDY    55  48  77 NE3       30.10S
LOUISVILLE/LOU CLEAR     54  48  80 NE3       30.11S
FORT KNOX      CLEAR     53  49  87 N8        30.08R
$$

KYZ035>037-039>044-047>052-055>060-089>105-290700-
NORTHEAST KENTUCKY

CITY           SKY/WX    TMP DP  RH WIND       PRES   REMARKS
LEXINGTON      CLOUDY    52  49  89 NE8       30.10F FOG
COVINGTON      CLOUDY    52  47  83 NE10      30.12F
FRANKFORT      PTCLDY    52  47  83 NE6       30.09F
$$

KYZ054-064>069-076>088-106>120-290700-
SOUTHEAST KENTUCKY

CITY           SKY/WX    TMP DP  RH WIND       PRES   REMARKS
JACKSON        CLOUDY    56  51  84 VRB6      30.10R
LONDON         CLOUDY    55  51  86 NE5       30.08S
SOMERSET       NOT AVBL
MIDDLESBORO    CLEAR     51  51  99 CALM      30.07S
MONTICELLO     CLEAR     50  49  96 W7        30.08F
$$




USA.gov is the U.S. government's official web portal to all federal, state and local government web resources and services.